Location: Tr�vern
(48.0333°N, 4.6000°W)
Time: 17:10:09
(UTC+00:00)

Cosmos 1666 - Pass Details

Date: 14 July 2020
Orbit: 497 x 521 km, 82.5° (Epoch: 13 August)

Event Time Altitude Azimuth Distance (km) Brightness Sun altitude
Exits shadow 02:48:09 21° 197° (SSW) 1,170 3.9 -13.3°
Maximum altitude 02:50:33 75° 280° (W) 529 2.6 -13.0°
Drops below altitude 10° 02:54:20 10° 6° (N) 1,724 6.4 -12.7°
Sets 02:56:28 0° 8° (N) 2,610 7.5 -12.5°
